Torino Bric Croce, Italy

3:09 PM CET on November 21, 2017 (GMT +0100)
Torino Bric Croce

Weather History for LIMK - January, 2013

Change the Weather History Date:

Thursday, January 24, 2013

  Actual Average Record
Temperature  
Mean Temperature 39 °F -  
Max Temperature 46 °F 43 °F 140 °F (1999)
Min Temperature 32 °F 33 °F 24 °F (2000)
Degree Days  
Heating Degree Days 26    
Moisture  
Dew Point 34 °F    
Average Humidity 85    
Maximum Humidity 100    
Minimum Humidity 55    
Precipitation  
Precipitation 0.00 in 0.05 in - ()
Sea Level Pressure  
Sea Level Pressure 29.52 in    
Wind  
Wind Speed 5 mph ()    
Max Wind Speed 17 mph    
Max Gust Speed -    
Visibility 3.2 miles    
Events Fog    
Averages and records for this station are not official NWS values.
T = Trace of Precipitation, MM = Missing Value Source: Averaged Metar Reports

Daily Weather History Graph

Daily Weather History Graph

Search for Another Location

Airport or City:

Trip Planner

Search our weather history database for the weather conditions in past years. The results will help you decide how hot, cold, wet, or windy it might be!

Date:

Astronomy

Jan. 24, 2013 Rise Set
Actual Time 7:57 AM CET 5:25 PM CET
Civil Twilight 7:25 AM CET 5:57 PM CET
Nautical Twilight 6:49 AM CET 6:33 PM CET
Astronomical Twilight 6:14 AM CET 7:08 PM CET
Moon 3:11 PM CET (1/24) 5:44 AM CET (1/24)
Length of Visible Light 10h 32m
Length of Day
9h 28m
Waxing Gibbous, 93% of the Moon is Illuminated
Jan 24
Waxing Gibbous
Jan 27
Full
Feb 3
Last Quarter
Feb 10
New
Feb 17
First Quarter

Hourly Weather History & Observations

Time (CET) Temp. Windchill Dew Point Humidity Pressure Visibility Wind Dir Wind Speed Gust Speed Precip Events Conditions
12:55 AM 32.0 °F 24.2 °F 32.0 °F 100% 29.62 in 0.1 mi North 9.2 mph - N/A Fog Fog
1:00 AM 33 °F - 33 °F 98%  in 0 mi North 9.2 mph - - Fog Heavy Fog
1:55 AM 32.0 °F 26.4 °F 32.0 °F 100% 29.59 in 0.2 mi North 5.8 mph - N/A Fog Fog
2:55 AM 32.0 °F 26.4 °F 32.0 °F 100% 29.59 in 0.2 mi North 5.8 mph - N/A Fog Fog
3:55 AM 32.0 °F 28.7 °F 32.0 °F 100% 29.56 in 0.2 mi NNW 3.5 mph - N/A Fog Fog
4:00 AM 32 °F - 32 °F 100%  in 0 mi NNW 3.5 mph - - Fog Heavy Fog
4:55 AM 33.8 °F - 33.8 °F 100% 29.56 in 0.2 mi Calm Calm - N/A Fog Fog
5:55 AM 33.8 °F - 33.8 °F 100% 29.53 in 6.2 mi Calm Calm - N/A   Overcast
6:55 AM 33.8 °F 29.6 °F 33.8 °F 100% 29.53 in 6.2 mi West 4.6 mph - N/A   Mostly Cloudy
7:00 AM 33 °F - 33 °F 100%  in 16 mi West 4.6 mph - -   Partly Cloudy
7:55 AM 33.8 °F 28.6 °F 33.8 °F 100% 29.53 in 6.2 mi WSW 5.8 mph - N/A   Scattered Clouds
8:55 AM 33.8 °F 27.7 °F 33.8 °F 100% 29.53 in - WSW 6.9 mph - N/A   Clear
9:55 AM 37.4 °F 32.1 °F 35.6 °F 93% 29.53 in - West 6.9 mph - N/A   Clear
10:55 AM 37.4 °F 31.4 °F 37.4 °F 100% 29.53 in - WNW 8.1 mph - N/A   Clear
11:55 AM 39.2 °F 33.6 °F 35.6 °F 87% 29.53 in - WNW 8.1 mph - N/A   Clear
12:55 PM 41.0 °F 38.0 °F 33.8 °F 76% 29.53 in - WNW 4.6 mph - N/A   Clear
1:00 PM 41 °F - 34 °F 68%  in 31 mi WNW 4.6 mph - -   Clear
1:55 PM 46.4 °F - 41.0 °F 81% 29.50 in - Calm Calm - N/A   Clear
2:55 PM 44.6 °F 43.1 °F 41.0 °F 87% 29.47 in - South 3.5 mph - N/A   Clear
3:55 PM 46.4 °F - 39.2 °F 76% 29.47 in - Calm Calm - N/A   Clear
4:00 PM 46 °F - 39 °F 68%  in 31 mi Calm Calm - -   Scattered Clouds
4:55 PM 42.8 °F - 42.8 °F 100% 29.47 in - Calm Calm - N/A   Clear
5:55 PM 41.0 °F 38.0 °F 32.0 °F 70% 29.47 in - SW 4.6 mph - N/A   Clear
6:55 PM 41.0 °F - 32.0 °F 70% 29.47 in - WSW 2.3 mph - N/A   Clear
7:00 PM 41 °F - 31 °F 58%  in 31 mi WSW 2.3 mph - -   Clear
7:55 PM 41.0 °F - 32.0 °F 70% 29.47 in - West 2.3 mph - N/A   Clear
8:55 PM 41.0 °F 38.0 °F 28.4 °F 61% 29.50 in - West 4.6 mph - N/A   Clear
9:55 PM 39.2 °F 30.2 °F 28.4 °F 65% 29.53 in - West 17.3 mph - N/A   Clear
10:00 PM 39 °F - 28 °F 55%  in 31 mi West 17.3 mph - -   Clear
10:55 PM 39.2 °F 35.0 °F 35.6 °F 87% 29.53 in - North 5.8 mph - N/A   Clear
11:55 PM 39.2 °F 34.2 °F 32.0 °F 75% 29.53 in - ENE 6.9 mph - N/A   Clear